Regional Weather Roundup
Issued by NWS

Home | Current Version | Previous Version | Text Only | Print | Product List | Glossary Off
Versions: 1 2 3 4 5 6 7 8 9 10 11 12 13 14 15 16 17 18 19 20 21 22 23 24 25 26 27 28 29 30 31 32 33 34 35 36 37 38 39 40 41 42 43 44 45 46 47 48 49 50

000
ASUS43 KIND 050359
RWRIN

WEATHER ROUNDUP FOR INDIANA
NATIONAL WEATHER SERVICE INDIANAPOLIS IN
1200 AM EDT THU MAY 05 2016

NOTE: "FAIR" INDICATES FEW OR NO CLOUDS BELOW 12,000 FEET WITH NO
SIGNIFICANT WEATHER AND/OR OBSTRUCTIONS TO VISIBILITY.

* - STATION DOES NOT REPORT WEATHER SUCH AS PRECIPITATION OR FOG.

+ - STATION NOT QUALITY CONTROLLED BY THE NATIONAL WEATHER SERVICE.
    USE DATA WITH CAUTION...ESPECIALLY DEWPOINT AND RELATIVE
    HUMIDITY OBSERVATIONS.

INZ001>003-010>013-019-020-050500-
NORTHWEST INDIANA

CITY           SKY/WX    TMP DP  RH WIND       PRES   REMARKS
RENSSELAER +   CLOUDY    43  37  81 NW17G23   29.82F

$$

LMZ046-743>745-050500-
SOUTHERN LAKE MICHIGAN

STATION/POSITION TIME  TEMP    WIND        PRES    WAVE
                       AIR SEA DIR/SP/G            HT
                 (UTC) (F)     (DEG/KT/KT) (MB)    (FT)
BURNS HARBOR     0301   44     360/ 24/ 29 1010.8S
MICHIGAN CITY    0300   42     330/ 31/ 36   N/A

$$

INZ004-005-014>016-021>024-050500-
NORTH CENTRAL INDIANA

CITY           SKY/WX    TMP DP  RH WIND       PRES   REMARKS
GOSHEN         LGT RAIN  41  39  93 NW10      29.72S FOG
SOUTH BEND     CLOUDY    40  38  93 N23G31    29.76S

$$

INZ006>009-017-018-025>027-050500-
NORTHEAST INDIANA

CITY           SKY/WX    TMP DP  RH WIND       PRES   REMARKS
ANGOLA *+      CLOUDY    39  36  87 CALM      29.71R
FORT WAYNE     DRIZZLE   39  37  92 NW5       29.74S FOG

$$

INZ028-029-035-036-043>045-051>053-050500-
WEST CENTRAL INDIANA

CITY           SKY/WX    TMP DP  RH WIND       PRES   REMARKS
CRAWFORDSVL +  CLOUDY    42  38  86 NW10      29.82F
GREENCASTLE +  CLOUDY    45  41  87 NW9       29.82S
LAFAYETTE      CLOUDY    43  36  76 NW17      29.81F
TERRE HAUTE    CLOUDY    50  41  71 NW3       29.82F

$$

INZ030>032-037>040-046>048-054>057-064-065-050500-
CENTRAL INDIANA

CITY           SKY/WX    TMP DP  RH WIND       PRES   REMARKS
INDIANAPOLIS   LGT RAIN  44  38  79 NW15      29.78F
-EAGLE CREEK   LGT RAIN  44  40  85 NW12G21   29.78F
KOKOMO *+      CLOUDY    41  36  81 N14       29.75F
SHELBYVILLE    CLOUDY    47  38  71 NW10      29.77F

$$

INZ033-034-041-042-049-050-058-059-050500-
EAST CENTRAL INDIANA

CITY           SKY/WX    TMP DP  RH WIND       PRES   REMARKS
MUNCIE         LGT RAIN  41  37  86 NW13      29.75S FOG

$$

INZ060-061-067>069-081>083-085>088-050500-
SOUTHWEST INDIANA

CITY           SKY/WX    TMP DP  RH WIND       PRES   REMARKS
EVANSVILLE     CLOUDY    52  41  66 W5        29.86F
HUNTINGBURG *+ CLOUDY    48  37  66 NW5       29.84F

$$

INZ062-063-066-070>080-084-089>092-050500-
SOUTH CENTRAL AND SOUTHEAST INDIANA

CITY           SKY/WX    TMP DP  RH WIND       PRES   REMARKS
BLOOMINGTON    CLOUDY    48  38  68 NW3       29.81F
MADISON *+     MOCLDY    46  37  71 CALM      29.81F
SEYMOUR +      MOCLDY    48  41  76 W5        29.80F

$$





USA.gov is the U.S. government's official web portal to all federal, state and local government web resources and services.